Simultaneous Nadir Overpasses (SNOs) Predictions

Prediction of SNOs between GOES-17 and AQUA Satellite Orbit:

Table of predicted SNOs for the next 14.0 days since TLE Epoch: 2/4/2023
Index Date Time (GOES-17) GOES-17 Lat,Lon AQUA Lat,Lon Distance(km) Time Diff (sec)
1 02/04/2023 21:02:34 -0.01,-109.62 0.06,-109.19 48.26 80
2 02/06/2023 20:49:12 -0.01,-107.29 0.27,-105.86 161.55 80
3 02/07/2023 09:07:30 0.01,-106.69 0.90,-110.93 482.07 80
4 02/08/2023 20:35:50 -0.01,-104.96 0.51,-102.54 275.22 80
5 02/09/2023 08:54:07 0.01,-104.36 0.71,-107.59 368.24 80
6 02/10/2023 20:22:27 -0.01,-102.63 0.72, -99.21 389.17 80
7 02/11/2023 08:40:44 0.01,-102.03 0.49,-104.26 254.22 80
8 02/13/2023 08:27:20 0.01, -99.70 0.30,-100.92 140.26 80
9 02/15/2023 08:13:56 0.02, -97.36 0.08, -97.59 26.48 80
10 02/17/2023 08:03:12 0.02, -95.02 -0.17, -94.26 87.25 80
